Weather History for Huntington, WV

Change the Weather History Date:

Sunday, June 16, 2013

  Actual Average Record
Temperature  
Mean Temperature 73 °F 72 °F  
Max Temperature 81 °F 83 °F 97 °F (1939)
Min Temperature 65 °F 62 °F 47 °F (1908)
Degree Days  
Heating Degree Days 0 0  
Month to date heating degree days 0 9  
Since 1 June heating degree days 0 9  
Since 1 July heating degree days 4527 4509  
Cooling Degree Days 8 8  
Month to date cooling degree days 114 99  
Year to date cooling degree days 284 212  
Since 1 June cooling degree days 114 99  
Growing Degree Days 22 (Base 50)    
Moisture  
Dew Point 66 °F    
Average Humidity 78    
Maximum Humidity 93    
Minimum Humidity 62    
Precipitation  
Precipitation 0.07 in 0.12 in 2.14 in (1901)
Month to date precipitation 2.75 2.21  
Year to date precipitation 16.33 20.29  
Snow  
Snow 0.00 in - - ()
Month to date snowfall 0.0  
Since 1 September snowfall 12.4  
Snow Depth 0.00 in    
Sea Level Pressure  
Sea Level Pressure 30.00 in    
Wind  
Wind Speed 4 mph (SW)    
Max Wind Speed 10 mph    
Max Gust Speed 16 mph    
Visibility 9 miles    
Events Rain    
T = Trace of Precipitation, MM = Missing Value Source: NWS Daily Summary

Daily Weather History Graph

Daily Weather History Graph

Search for Another Location

Airport:

Trip Planner

Search our weather history database for the weather conditions in past years. The results will help you decide how hot, cold, wet, or windy it might be!

Date:

Astronomy

Jun. 16, 2013 Rise Set
Actual Time 6:06 AM EDT 8:56 PM EDT
Civil Twilight 5:34 AM EDT 9:27 PM EDT
Nautical Twilight 4:54 AM EDT 10:07 PM EDT
Astronomical Twilight 4:09 AM EDT 10:53 PM EDT
Moon 1:35 PM EDT (6/16) 1:05 AM EDT (6/16)
Length of Visible Light 15h 53m
Length of Day
14h 50m
Waxing Crescent, 49% of the Moon is Illuminated
Jun 16
Waxing Crescent
Jun 16
First Quarter
Jun 23
Full
Jun 30
Last Quarter
Jul 8
New

Hourly Weather History & Observations

Time (EDT) Temp. Heat Index Dew Point Humidity Pressure Visibility Wind Dir Wind Speed Gust Speed Precip Events Conditions
12:51 AM 66.9 °F - 64.0 °F 90% 30.01 in 7.0 mi ESE 3.5 mph - N/A   Partly Cloudy
1:51 AM 64.9 °F - 63.0 °F 93% 30.00 in 8.0 mi Calm Calm - N/A   Partly Cloudy
2:51 AM 64.9 °F - 62.1 °F 90% 29.99 in 10.0 mi South 3.5 mph - N/A   Clear
3:51 AM 66.0 °F - 61.0 °F 84% 29.99 in 10.0 mi Calm Calm - N/A   Clear
4:51 AM 66.9 °F - 61.0 °F 81% 29.99 in 10.0 mi SSW 5.8 mph - N/A   Mostly Cloudy
5:51 AM 66.9 °F - 62.1 °F 84% 30.00 in 10.0 mi SW 3.5 mph - N/A   Partly Cloudy
6:51 AM 66.9 °F - 62.1 °F 84% 30.01 in 10.0 mi SSW 4.6 mph - N/A   Scattered Clouds
7:51 AM 70.0 °F - 63.0 °F 78% 30.01 in 10.0 mi SSW 6.9 mph - N/A   Partly Cloudy
8:51 AM 71.1 °F - 64.0 °F 78% 30.04 in 10.0 mi SW 4.6 mph - N/A   Mostly Cloudy
9:51 AM 73.9 °F - 64.9 °F 73% 30.03 in 10.0 mi SSW 5.8 mph - N/A   Overcast
10:51 AM 75.9 °F - 64.9 °F 69% 30.04 in 10.0 mi West 6.9 mph - N/A   Overcast
11:46 AM 75.2 °F - 66.2 °F 73% 30.07 in 10.0 mi NW 5.8 mph - 0.00 in   Mostly Cloudy
11:51 AM 75.9 °F - 66.0 °F 71% 30.05 in 10.0 mi West 8.1 mph - 0.00 in   Mostly Cloudy
12:51 PM 78.1 °F - 66.0 °F 66% 30.03 in 10.0 mi West 6.9 mph - N/A   Scattered Clouds
1:51 PM 78.1 °F - 66.0 °F 66% 30.00 in 10.0 mi SSW 6.9 mph - N/A   Clear
2:51 PM 80.1 °F 82.3 °F 66.9 °F 64% 30.00 in 10.0 mi West 5.8 mph - N/A   Overcast
3:51 PM 80.1 °F 82.3 °F 66.9 °F 64% 29.99 in 10.0 mi SW 4.6 mph - N/A   Mostly Cloudy
4:51 PM 80.1 °F 82.3 °F 66.9 °F 64% 29.98 in 10.0 mi WSW 4.6 mph - 0.00 in Rain Light Rain
5:51 PM 78.1 °F - 69.1 °F 74% 29.97 in 10.0 mi Calm Calm - 0.00 in Rain Light Rain
6:51 PM 75.0 °F - 71.1 °F 87% 29.99 in 5.0 mi Calm Calm - 0.03 in Rain Light Rain
7:07 PM 73.4 °F - 71.6 °F 94% 30.00 in 2.5 mi Calm Calm - 0.02 in Rain Light Rain
7:15 PM 73.4 °F - 71.6 °F 94% 30.00 in 4.0 mi Calm Calm - 0.03 in Rain Light Rain
7:51 PM 73.0 °F - 71.1 °F 93% 29.97 in 6.0 mi Variable 4.6 mph - 0.04 in Rain Light Rain
8:51 PM 71.1 °F - 66.9 °F 87% 29.99 in 10.0 mi SSW 5.8 mph - 0.00 in   Partly Cloudy
9:51 PM 69.1 °F - 66.9 °F 93% 29.98 in 8.0 mi SSE 4.6 mph - 0.00 in Rain Light Rain
10:51 PM 68.0 °F - 66.0 °F 93% 29.99 in 10.0 mi SSW 3.5 mph - 0.00 in   Partly Cloudy
11:42 PM 68.0 °F - 66.2 °F 94% 30.01 in 7.0 mi South 4.6 mph - N/A   Partly Cloudy
11:51 PM 68.0 °F - 66.0 °F 93% 29.99 in 7.0 mi SSW 4.6 mph - N/A   Partly Cloudy